Retour au catalogue

KINEIS-1A

ActifCommunicationsSSO
NORAD 60084·PAYLOAD·🇫🇷 France

Lancé Jun 20, 2024 depuis Rocket Lab Launch Complex 1

Loading…

Prochains Passages (prochaines 24 heures)

TLE

FraisSource: Space-Track

Époque: Sep 14, 2026, 21:06 UTC

1 60084U 24114F   26257.87924560  .00000501  00000-0  71823-4 0  9994
2 60084  97.8907 279.9621 0003643 188.8402 171.2747 14.80733321120669

Suivez KINEIS-1A en temps réel avec AllMySat

Download on the App Store